Location: Rancho Del Sol Observatory
(38.7214°N, 120.6350°W)
Time: 07:45:10
(UTC-07:00)

Daily predictions for brighter satellites

Satellite Brightness Start Highest point End
(mag) Time Altitude Azimuth Time Altitude Azimuth Time Altitude Azimuth
Cosmos 2360 Rocket 3.4 20:10:08 10° SSE 20:14:14 21° E 20:18:21 10° NE
SJ-6B 3.5 20:10:51 10° S 20:14:44 59° W 20:18:45 10° NNW
Cosmos 1980 Rocket 3.4 20:09:20 10° SW 20:14:48 49° WNW 20:20:21 10° NNE
USA 267 3.5 20:09:55 10° NE 20:16:27 77° NW 20:22:59 10° SW
GENESIS II 4.3 20:13:41 10° SSW 20:17:40 59° ESE 20:21:40 10° NE
Cosmos 1400 Rocket 4.0 20:13:57 10° NNW 20:17:42 45° W 20:21:29 10° SSW
Cosmos 1503 Rocket 4.3 20:13:35 10° N 20:18:43 51° ENE 20:23:46 10° SE
Spot 2 Rocket 3.6 20:14:45 10° SSE 20:19:47 65° ENE 20:24:49 10° N
Cosmos 1408 3.2 20:20:43 10° N 20:24:10 37° E 20:27:35 10° SSE
Cosmos 1354 Rocket 4.1 20:19:28 10° N 20:24:42 59° ENE 20:29:51 10° SSE
Cosmos 2142 Rocket 4.5 20:20:27 10° S 20:26:30 67° E 20:32:37 10° NNE
ATLAS 5 CENTAUR R/B 3.4 20:24:09 10° NNW 20:29:30 33° NE 20:35:10 10° ESE
Meteor 1-29 4.1 20:27:55 10° NE 20:30:48 24° E 20:33:38 10° SSE
CZ-2D R/B 3.2 20:27:16 10° SSE 20:31:09 75° ENE 20:35:02 10° N
Cosmos 1707 Rocket 4.2 20:27:33 10° SSW 20:31:57 62° W 20:36:20 10° N
Cosmos 1315 Rocket 3.5 20:31:16 10° NNW 20:35:16 56° W 20:39:10 10° S
SL-16 R/B 2.2 20:29:54 10° SSW 20:35:34 86° ESE 20:41:16 10° NNE
Cosmos 1733 Rocket 3.6 20:33:29 10° N 20:37:44 42° ENE 20:41:57 10° SSE
Cosmos 2026 Rocket 4.0 20:33:15 10° N 20:39:27 66° E 20:45:30 10° SSE
Envisat 3.5 20:35:11 10° SE 20:39:57 43° ENE 20:44:45 10° N
Cosmos 1933 3.8 20:39:22 10° SSE 20:43:09 40° E 20:46:56 10° NNE
Cosmos 1862 Rocket 3.8 20:41:17 10° SSE 20:45:36 50° E 20:49:57 10° NNE
USA 186 1.4 20:43:29 10° SSE 20:46:13 89° ENE 20:49:10 10° N
Helios 1A 3.1 20:42:55 10° SSE 20:47:04 58° ENE 20:51:15 10° N
Meteor 2-20 Rocket 4.4 20:43:12 10° N 20:49:21 84° E 20:55:30 10° S
ERBS 4.0 20:46:46 10° WNW 20:49:48 28° SW 20:52:50 10° S
USA 234 3.9 20:44:02 11° ESE 20:49:53 45° NNE 20:56:02 10° NW
CZ-4B DEB 3.2 20:49:11 17° SE 20:51:09 39° ENE 20:54:01 10° N
SEDSat Delta rocket 4.1 20:47:51 10° WSW 20:52:31 38° S 20:56:22 17° ESE
SJ-11-01 4.5 20:52:17 13° SSE 20:56:22 52° ENE 21:00:54 10° N
YAOGAN 6 3.8 20:55:56 19° ESE 20:57:24 25° ENE 21:00:25 10° NNE
Cosmos 1844 Rocket 4.5 20:54:45 10° NNE 20:58:06 16° NE 21:00:56 11° E
DELTA 2 R/B(2) 3.7 20:54:46 10° W 20:58:19 89° S 20:59:11 30° E
Cosmos 1862 3.2 20:57:04 10° N 21:01:07 76° E 21:04:50 12° SSE
ERS-1 Rocket 3.7 21:02:04 19° ESE 21:04:55 35° ENE 21:09:27 10° N
Cosmos 1703 Rocket 4.4 21:04:07 21° SE 21:06:13 31° E 21:10:06 10° NNE
SeaSat 1 4.3 21:07:43 12° E 21:10:00 16° NE 21:12:59 10° NNE
Centaur AC-42 4.4 20:50:33 10° W 21:11:07 26° SSW 21:16:02 14° SSE
Sakura Rocket 4.4 21:14:18 10° SW 21:16:55 19° S 21:16:55 19° S
Cosmos 2219 Rocket 3.7 21:19:11 16° E 21:19:11 16° E 21:21:36 10° ENE
Meteor 2-10 Rocket 3.7 21:13:20 10° S 21:19:07 70° E 21:24:53 10° NNE
Cosmos 1939 Rocket 2.8 21:16:29 19° SSE 21:19:17 90° W 21:23:18 10° NNW
Meteor 1-26 Rocket 4.2 21:16:51 10° S 21:22:26 63° E 21:28:10 10° NNE
Cosmos 1655 Rocket 4.3 21:16:18 10° NNW 21:22:39 70° W 21:28:56 10° S
Cosmos 2221 Rocket 4.1 21:25:39 34° ESE 21:26:36 38° E 21:30:42 10° NNE
Cosmos 2266 Rocket 4.2 21:22:05 10° N 21:28:16 55° E 21:31:44 27° SSE
NOSS 3-1 (C) 4.2 21:29:42 27° ESE 21:29:42 27° ESE 21:34:23 10° NE
SPOT 5 3.7 21:29:53 28° E 21:30:54 31° ENE 21:34:59 10° N
ORS 1 (USA 231) 4.5 21:28:33 10° W 21:31:37 64° SSW 21:31:40 63° S
Helios 1B rocket 3.9 21:30:21 10° N 21:34:10 38° WNW 21:37:59 10° SW
USA 229 DEB 3.6 21:27:43 10° SSW 21:34:30 79° ESE 21:41:27 10° NE
USA 229 3.6 21:27:50 10° SSW 21:34:37 78° ESE 21:41:33 10° NE
Lacrosse 4 Rocket 3.5 21:31:14 10° NW 21:34:44 24° WSW 21:38:16 10° SSW
Cosmos 2263 Rocket 2.8 21:35:12 10° NNW 21:40:35 52° WSW 21:44:21 19° S
Resurs 01 Rocket 4.4 21:38:09 10° SW 21:40:42 15° W 21:43:16 10° WNW
Atlas Centaur 2 3.2 21:38:36 10° WSW 21:45:07 45° S 21:47:50 34° SE
Cosmos 2237 4.1 21:41:44 10° SSW 21:47:27 79° ESE 21:53:12 10° NNE
H-2A R/B 4.1 21:51:22 16° NE 21:51:22 16° NE 21:53:27 10° NNE
OAO 3 Rocket 3.8 21:51:21 10° W 21:55:54 39° SSW 21:56:07 39° S
COSMOS 2428 2.6 21:52:40 19° S 21:56:44 71° ESE 22:02:25 10° NNE
Cosmos 2360 Rocket 3.1 21:52:20 10° SW 21:57:47 50° WNW 22:03:19 10° NNE
Cosmos 1908 Rocket 4.1 21:53:39 10° NNW 21:57:54 55° W 21:59:28 34° SSW
Sich 1 Rocket 4.2 21:55:46 10° NNW 22:00:09 53° W 22:01:56 32° SSW
MetOp-B 4.0 22:01:42 49° SSE 22:03:12 85° ENE 22:08:35 10° NNW
Milstar 3 3.9 21:58:23 10° WSW 22:04:16 25° SSW 22:05:16 24° S
Cosmos 1606 4.4 22:06:26 24° NE 22:06:26 24° NE 22:08:09 10° NNE
MOS 1-B Rocket 3.9 22:03:26 48° SE 22:04:56 65° ENE 22:10:30 10° N
CZ-4C R/B 4.0 22:00:27 10° NNW 22:06:35 30° NE 22:09:38 23° E
Cosmos 968 Rocket 4.0 22:01:35 10° NNW 22:06:39 53° WSW 22:08:32 35° SSW
Meteor 1-14 Rocket 4.4 22:01:37 10° NNW 22:07:17 72° W 22:09:37 37° S
NOAA 11 4.2 22:07:24 47° S 22:09:05 82° WSW 22:14:36 10° NNW
Cosmos 1844 4.1 22:05:47 10° N 22:11:12 45° ENE 22:11:46 43° ENE
Meteor 1-25 Rocket 4.1 22:05:58 10° N 22:11:34 90° ENE 22:12:49 56° S
Cosmos 1782 Rocket 3.7 22:08:04 10° NNW 22:12:25 68° W 22:12:51 63° SW
Nadezhda 2 Rocket 4.4 22:07:26 10° N 22:13:54 78° E 22:15:36 52° SSE
ATLAS 5 CENTAUR R/B 3.1 22:08:33 10° NW 22:14:26 49° WSW 22:16:45 35° SSW
USA 245 4.0 22:14:24 60° SSE 22:15:28 87° ENE 22:20:28 10° NNW
Terra 3.1 22:19:36 28° NE 22:19:36 28° NE 22:22:56 10° N
ARGOS 3.0 22:19:22 66° S 22:20:11 87° WSW 22:25:36 10° NNW
H-2A R/B 2.1 22:21:01 56° ENE 22:21:01 56° ENE 22:25:39 10° N
Cosmos 1867 4.3 22:16:21 10° NW 22:21:30 44° WSW 22:22:39 38° SSW
Okean 1-7 3.7 22:22:17 44° WSW 22:23:09 51° W 22:27:28 10° N
Meteor 1-20 Rocket 4.2 22:17:47 10° N 22:23:24 81° W 22:24:24 61° S
Okean 2 Rocket 3.2 22:20:25 10° NNW 22:24:50 71° W 22:24:50 71° W
S3M 4.2 22:32:34 52° ENE 22:32:34 52° ENE 22:38:12 10° NNE
USA 234 3.5 22:31:22 47° S 22:32:46 55° SW 22:39:10 10° NW
Cosmos 2237 Rocket 3.2 22:37:35 33° NE 22:37:35 33° NE 22:40:57 10° NE
Meteor 2-6 Rocket 4.2 22:35:36 71° S 22:36:19 90° NE 22:42:19 10° N
Cosmos 2333 Rocket 2.4 22:37:14 60° ENE 22:37:14 60° ENE 22:42:08 10° NNE
Cosmos 1570 Rocket 4.1 22:38:19 71° NNE 22:38:19 71° NNE 22:43:01 10° NNE
Cosmos 2278 Rocket 2.8 22:36:21 10° N 22:41:25 43° NE 22:41:25 43° NE
Cosmos 1844 Rocket 2.6 22:37:02 10° NNW 22:42:37 76° WSW 22:42:37 76° WSW
Cosmos 1782 4.3 22:47:27 36° NW 22:47:27 36° NW 22:50:25 10° N
SeaSat 1 2.7 22:47:30 66° WNW 22:47:30 66° WNW 22:51:55 10° NNW
Cosmos 2208 Rocket 4.2 22:47:47 69° N 22:47:47 69° N 22:52:28 10° NNE
Cosmos 2219 Rocket 2.6 23:00:48 55° W 23:01:23 58° WNW 23:06:57 10° NNE
Cosmos 1745 Rocket 4.0 23:00:45 10° N 23:06:41 77° NNE 23:06:41 77° NNE
Cosmos 1898 Rocket 4.5 23:09:04 10° NNW 23:12:38 42° N 23:12:38 42° N
Meteor 1-27 Rocket 4.2 23:18:02 57° NW 23:18:02 57° NW 23:23:01 10° N
NOSS 3-1 (C) 4.3 23:16:54 27° WSW 23:19:45 46° NW 23:25:57 10° NNE
ASTEX 1 4.5 23:21:22 42° NW 23:21:22 42° NW 23:24:58 10° NNW
H-2A R/B 4.1 23:28:29 25° NW 23:28:29 25° NW 23:30:35 10° NNW
NOSS 0 Rocket 4.4 23:29:27 53° WNW 23:29:46 53° WNW 23:35:48 10° NNE
Atlas Centaur 2 4.2 23:27:19 10° WSW 23:30:28 25° WSW 23:30:28 25° WSW
NOSS 3-1 (A) 4.1 23:35:07 45° WNW 23:35:55 48° NW 23:42:11 10° NNE
ATLAS 2AS CENTAUR R/B 3.9 23:39:39 35° ENE 23:39:39 35° ENE 23:44:32 10° NE
